Regional Weather Roundup
Issued by NWS

Home | Current Version | Previous Version | Graphics & Text | Print | Product List | Glossary On
Versions: 1 2 3 4 5 6 7 8 9 10 11 12 13 14 15 16 17 18 19 20 21 22 23 24 25 26 27 28 29 30 31 32 33 34 35 36 37 38 39 40 41 42 43 44 45 46 47 48 49 50
000
ASUS43 KFSD 160510
RWRSD

WEATHER ROUNDUP FOR SOUTH DAKOTA
NATIONAL WEATHER SERVICE SIOUX FALLS SD
1200 AM CDT TUE SEP 16 2014

NOTE: "FAIR" INDICATES FEW OR NO CLOUDS BELOW 12,000 FEET WITH NO
SIGNIFICANT WEATHER AND/OR OBSTRUCTIONS TO VISIBILITY.


SDZ001>005-009-010-012>017-160600-
NORTHWEST AND NORTH CENTRAL SOUTH DAKOTA

CITY           SKY/WX    TMP DP  RH WIND       PRES   REMARKS
BUFFALO          N/A     51  42  71 CALM      30.03F
FAITH            N/A     50  39  66 SE16      30.10F
MOBRIDGE       CLEAR     45  41  86 E8        30.12F
$$

SDZ012>016-024>037-041>051-057-063-072>074-160600-
SOUTHWEST AND SOUTH CENTRAL SOUTH DAKOTA

CITY           SKY/WX    TMP DP  RH WIND       PRES   REMARKS
RAPID CTY ARPT CLEAR     49  42  77 SE8       30.10F
PIERRE         CLEAR     48  39  71 SE8       30.15F
CUSTER         CLEAR     45  39  79 NW5       30.20F
ELLSWORTH AFB  CLEAR     57  43  59 S10       30.08F
PHILIP         CLEAR     49  40  71 E6        30.11F
PINE RIDGE     CLEAR     59  43  55 S20G29    30.12F
WINNER         FAIR      50  38  63 SE12      30.18F
$$

SDZ004>011-016>023-039-040-160600-
NORTHEAST SOUTH DAKOTA

CITY           SKY/WX    TMP DP  RH WIND       PRES   REMARKS
ABERDEEN       CLEAR     41  35  79 S3        30.19S
WATERTOWN      CLEAR     42  37  82 SE3       30.21S
SISSETON         N/A     43  37  79 SW7       30.18S
$$

SDZ017-020-022-023-036>040-048>070-160600-
SOUTHEAST SOUTH DAKOTA

CITY           SKY/WX    TMP DP  RH WIND       PRES   REMARKS
SIOUX FALLS    CLEAR     45  43  93 CALM      30.24S
HURON          CLEAR     45  36  70 S5        30.21S
CHAMBERLAIN    CLEAR     44  37  77 SE7       30.19F
MITCHELL       CLEAR     46  40  79 S3        30.23F
YANKTON        CLEAR     46  41  81 CALM      30.25S
$$

ABBREVIATIONS USED IN REMARKS
   TC - TEMPERATURE IN CELSIUS
  WCI - WIND CHILL INDEX
   HX - HEAT INDEX
  VSB - VISIBILITY



USA.gov is the U.S. government's official web portal to all federal, state and local government web resources and services.